GW6470 Weather Reports


time (UTC)temp
C
wind
direction
speed
KPH
gust
KPH
rain 1hr
cm
rain 24hr
cm
rain mn
cm
humidity
%
barometer
mb
20260503213001 31 348 0.0 0.0 0.00 0.00 0.00 33 1009.2
20260503212458 32 357 0.0 0.0 0.00 0.00 0.00 30 1009.3
20260503211955 31 70 0.0 0.0 0.00 0.00 0.00 28 1009.5
20260503211452 30 36 0.0 0.0 0.00 0.00 0.00 30 1009.4
20260503210948 30 279 0.0 0.0 0.00 0.00 0.00 40 1009.5
20260503210446 30 297 0.0 0.0 0.00 0.00 0.00 37 1009.7
20260503205945 30 261 0.0 0.0 0.00 0.00 0.00 39 1009.6
20260503205443 30 296 0.0 0.0 0.00 0.00 0.00 43 1009.7
20260503204938 30 279 0.0 0.0 0.00 0.00 0.00 42 1009.7
20260503204436 29 282 0.0 0.0 0.00 0.00 0.00 40 1009.8
20260503203933 29 266 0.0 0.0 0.00 0.00 0.00 40 1009.9
20260503203430 28 294 0.0 0.0 0.00 0.00 0.00 41 1010.1
20260503202927 28 294 0.0 0.0 0.00 0.00 0.00 51 1010.1
20260503202426 28 276 0.0 0.0 0.00 0.00 0.00 47 1010.2
20260503201924 28 296 0.0 0.0 0.00 0.00 0.00 50 1010.0
20260503201420 28 291 0.0 0.0 0.00 0.00 0.00 42 1010.1
20260503200918 27 290 0.0 0.0 0.00 0.00 0.00 46 1010.3
20260503200414 28 292 0.0 0.0 0.00 0.00 0.00 45 1010.6
20260503195911 27 288 0.0 0.0 0.00 0.00 0.00 43 1010.5
20260503195408 27 292 0.0 0.0 0.00 0.00 0.00 44 1010.6
20260503194905 27 306 0.0 0.0 0.00 0.00 0.00 46 1010.4
20260503194401 27 301 0.0 0.0 0.00 0.00 0.00 48 1010.7
20260503193857 27 270 0.0 0.0 0.00 0.00 0.00 46 1010.7
20260503193353 27 318 0.0 0.0 0.00 0.00 0.00 50 1011.0
20260503192848 27 307 0.0 0.0 0.00 0.00 0.00 50 1010.9
20260503192344 26 242 0.0 0.0 0.00 0.00 0.00 47 1010.9
20260503191841 26 289 0.0 0.0 0.00 0.00 0.00 46 1011.0
20260503191338 26 341 0.0 0.0 0.00 0.00 0.00 48 1011.0
20260503190835 26 292 0.0 0.0 0.00 0.00 0.00 50 1011.0
20260503190332 26 290 0.0 0.0 0.00 0.00 0.00 52 1011.1
20260503185829 26 318 0.0 0.0 0.00 0.00 0.00 49 1011.2
20260503185325 26 289 0.0 0.0 0.00 0.00 0.00 49 1011.2
20260503184825 26 12 0.0 0.0 0.00 0.00 0.00 54 1011.4
20260503184322 25 280 0.0 0.0 0.00 0.00 0.00 51 1011.3
20260503183817 25 16 0.0 0.0 0.00 0.00 0.00 53 1011.5
20260503183315 25 292 0.0 0.0 0.00 0.00 0.00 53 1011.5
20260503182812 25 299 0.0 0.0 0.00 0.00 0.00 56 1011.6
20260503182312 25 287 0.0 0.0 0.00 0.00 0.00 53 1011.5
20260503181808 25 21 0.0 0.0 0.00 0.00 0.00 55 1011.5
20260503181305 25 285 0.0 0.0 0.00 0.00 0.00 50 1011.7
20260503180801 25 350 0.0 0.0 0.00 0.00 0.00 48 1011.7
20260503180300 25 65 0.0 0.0 0.00 0.00 0.00 54 1011.9
20260503175755 25 39 0.0 0.0 0.00 0.00 0.00 54 1011.8
20260503175254 24 341 0.0 0.0 0.00 0.00 0.00 54 1011.9
20260503174754 24 56 0.0 0.0 0.00 0.00 0.00 56 1011.7
20260503174253 24 62 0.0 0.0 0.00 0.00 0.00 53 1012.1
20260503173753 23 72 0.0 0.0 0.00 0.00 0.00 58 1012.1
20260503173250 23 326 0.0 0.0 0.00 0.00 0.00 56 1012.0
20260503172747 23 24 0.0 0.0 0.00 0.00 0.00 58 1011.9
20260503172244 22 265 0.0 0.0 0.00 0.00 0.00 55 1012.2
20260503171740 22 36 0.0 0.0 0.00 0.00 0.00 56 1012.1
20260503171237 23 340 0.0 0.0 0.00 0.00 0.00 61 1012.1
20260503170734 22 66 0.0 0.0 0.00 0.00 0.00 59 1012.1
20260503170231 22 22 0.0 0.0 0.00 0.00 0.00 60 1012.2
20260503160153 19 81 0.0 0.0 0.00 0.00 0.00 70 1012.4
20260503150623 15 80 0.0 0.0 0.00 0.00 0.00 85 1012.6
20260503150119 14 80 0.0 0.0 0.00 0.00 0.00 87 1012.7
20260503131013 8 33 0.0 0.0 0.00 0.00 0.00 98 1012.3
20260503130510 8 33 0.0 0.0 0.00 0.00 0.00 98 1012.2
20260503110407 10 338 0.0 0.0 0.00 0.00 0.00 97 1012.7
20260503090258 11 17 0.0 0.0 0.00 0.00 0.00 96 1012.8
20260503081225 11 19 0.0 0.0 0.00 0.00 0.00 95 1012.8
20260503080720 11 17 0.0 0.0 0.00 0.00 0.00 95 1012.9
20260503080218 11 37 0.0 0.0 0.00 0.00 0.00 95 1012.6
20260503072654 12 41 0.0 0.0 0.00 0.00 0.00 94 1013.0
20260503072151 12 339 0.0 0.0 0.00 0.00 0.00 94 1012.7
20260503071648 12 316 0.0 0.0 0.00 0.00 0.00 94 1012.9
20260503071145 11 291 0.0 0.0 0.00 0.00 0.00 93 1012.9
20260503070642 12 240 0.0 0.0 0.00 0.00 0.00 93 1012.9
20260503070140 12 274 0.0 0.0 0.00 0.00 0.00 93 1013.1
20260503060104 14 182 0.0 0.0 0.00 0.00 0.00 89 1012.9
20260503055055 14 227 0.0 0.0 0.00 0.00 0.00 89 1012.8
20260503054551 14 147 0.0 0.0 0.00 0.00 0.00 89 1012.7
20260503054048 14 165 0.0 0.0 0.00 0.00 0.00 89 1012.9
20260503053546 14 233 0.0 0.0 0.00 0.00 0.00 89 1013.0
20260503053044 13 218 0.0 0.0 0.00 0.00 0.00 89 1012.9
20260503052540 14 297 0.0 0.0 0.00 0.00 0.00 89 1012.8
20260503052037 15 7 0.0 0.0 0.00 0.00 0.00 87 1012.9
20260503051532 15 45 0.0 0.0 0.00 0.00 0.00 87 1013.1
20260503051031 15 56 0.0 0.0 0.00 0.00 0.00 87 1013.2
20260503050526 15 89 0.0 0.0 0.00 0.00 0.00 86 1012.9
20260503050024 15 70 0.0 0.0 0.00 0.00 0.00 87 1012.9
20260503045521 15 73 0.0 0.0 0.00 0.00 0.00 86 1012.9
20260503045018 15 303 0.0 0.0 0.00 0.00 0.00 86 1013.0
20260503044514 15 286 0.0 0.0 0.00 0.00 0.00 85 1012.6
20260503044012 15 288 0.0 0.0 0.00 0.00 0.00 88 1012.7
20260503043508 15 296 0.0 0.0 0.00 0.00 0.00 87 1013.0
20260503043004 16 288 0.0 0.0 0.00 0.00 0.00 86 1012.9
20260503042501 16 16 0.0 0.0 0.00 0.00 0.00 84 1013.0
20260503041958 16 340 0.0 0.0 0.00 0.00 0.00 84 1013.2
20260503041455 16 25 0.0 0.0 0.00 0.00 0.00 84 1013.2
20260503040953 16 25 0.0 0.0 0.00 0.00 0.00 83 1013.1
20260503040449 16 25 0.0 0.0 0.00 0.00 0.00 83 1013.0
20260503035947 16 25 0.0 0.0 0.00 0.00 0.00 83 1012.7
20260503035443 16 24 0.0 0.0 0.00 0.00 0.00 83 1013.0
20260503034941 16 344 0.0 0.0 0.00 0.00 0.00 83 1012.7
20260503034438 16 17 0.0 0.0 0.00 0.00 0.00 83 1012.7
20260503033935 16 5 0.0 0.0 0.00 0.00 0.00 83 1012.5
20260503033432 16 9 0.0 0.0 0.00 0.00 0.00 82 1012.6
20260503032930 16 11 0.0 0.0 0.00 0.00 0.00 83 1012.5
20260503032429 16 13 0.0 0.0 0.00 0.00 0.00 84 1012.4
20260503031926 16 13 0.0 0.0 0.00 0.00 0.00 85 1012.5
20260503031424 17 5 0.0 0.0 0.00 0.00 0.00 80 1012.5
20260503030920 17 339 0.0 0.0 0.00 0.00 0.00 77 1012.3
20260503030417 17 92 0.0 0.0 0.00 0.00 0.00 79 1012.6
20260503025914 17 311 0.0 0.0 0.00 0.00 0.00 76 1012.2
20260503025411 17 141 0.0 0.0 0.00 0.00 0.00 76 1012.5
20260503024908 18 161 0.0 0.0 0.00 0.00 0.00 75 1012.4
20260503024405 18 182 0.0 0.0 0.00 0.00 0.00 74 1012.6
20260503023902 18 118 0.0 0.0 0.00 0.00 0.00 75 1012.7
20260503023359 18 209 0.0 0.0 0.00 0.00 0.00 74 1012.5
20260503022856 18 198 0.0 0.0 0.00 0.00 0.00 74 1012.5
20260503022355 18 174 0.0 0.0 0.00 0.00 0.00 74 1012.5
20260503021852 19 218 0.0 0.0 0.00 0.00 0.00 73 1012.7
20260503021348 19 337 0.0 0.0 0.00 0.00 0.00 73 1012.4
20260503020846 19 304 0.0 0.0 0.00 0.00 0.00 75 1012.4
20260503020344 19 91 0.0 0.0 0.00 0.00 0.00 75 1012.2
20260503015840 20 91 0.0 0.0 0.00 0.00 0.00 72 1012.0
20260503015337 20 92 0.0 0.0 0.00 0.00 0.00 73 1012.0
20260503014832 20 142 0.0 0.0 0.00 0.00 0.00 74 1012.0
20260503014330 20 85 0.0 0.0 0.00 0.00 0.00 74 1011.9
20260503013828 20 93 0.0 0.0 0.00 0.00 0.00 75 1012.0
20260503013325 20 194 0.0 0.0 0.00 0.00 0.00 71 1012.0
20260503012822 20 119 0.0 0.0 0.00 0.00 0.00 73 1011.8
20260503012320 20 183 0.0 0.0 0.00 0.00 0.00 72 1011.8
20260503011816 20 189 0.0 0.0 0.00 0.00 0.00 70 1011.9
20260503011313 20 194 0.0 0.0 0.00 0.00 0.00 70 1012.0
20260503010809 20 196 0.0 0.0 0.00 0.00 0.00 69 1011.7
20260503010307 20 81 0.0 0.0 0.00 0.00 0.00 68 1011.8
20260503005804 20 198 0.0 0.0 0.00 0.00 0.00 68 1011.7
20260503005301 20 94 0.0 0.0 0.00 0.00 0.00 70 1011.8
20260503004756 20 236 0.0 0.0 0.00 0.00 0.00 67 1012.0
20260503004255 20 193 0.0 0.0 0.00 0.00 0.00 67 1011.7
20260503003752 20 239 0.0 0.0 0.00 0.00 0.00 67 1011.6
20260503003249 20 204 0.0 0.0 0.00 0.00 0.00 69 1012.0
20260503002746 20 79 0.0 0.0 0.00 0.00 0.00 68 1011.9
20260503002243 20 38 0.0 0.0 0.00 0.00 0.00 66 1011.8
20260503001739 20 62 0.0 0.0 0.00 0.00 0.00 66 1011.7
20260503001235 20 23 0.0 0.0 0.00 0.00 0.00 66 1011.8
20260503000733 20 74 0.0 0.0 0.00 0.00 0.00 66 1011.9
20260503000230 20 80 0.0 0.0 0.00 0.00 0.00 67 1011.9
20260502235727 21 58 0.0 0.0 0.00 0.00 0.00 69 1011.9
20260502235225 20 25 0.0 0.0 0.00 0.00 0.00 64 1011.8
20260502234721 20 62 0.0 0.0 0.00 0.00 0.00 64 1012.3
20260502234218 20 22 0.0 0.0 0.00 0.00 0.00 63 1012.0
20260502233714 21 284 0.0 0.0 0.00 0.00 0.00 62 1012.3
20260502233211 20 247 0.0 0.0 0.00 0.00 0.00 63 1012.4
20260502232707 20 112 0.0 0.0 0.00 0.00 0.00 62 1012.5
20260502232204 20 85 0.0 0.0 0.00 0.00 0.00 65 1012.5
20260502231701 20 291 0.0 0.0 0.00 0.00 0.00 63 1012.6
20260502231159 20 256 0.0 0.0 0.00 0.00 0.00 65 1012.5
20260502230657 20 307 0.0 0.0 0.00 0.00 0.00 65 1012.8
20260502230155 20 346 0.0 0.0 0.00 0.00 0.00 65 1012.6
20260502225650 19 109 0.0 0.0 0.00 0.00 0.00 66 1012.7
20260502225148 20 161 0.0 0.0 0.00 0.00 0.00 65 1012.8
20260502224644 20 47 0.0 0.0 0.00 0.00 0.00 67 1012.8
20260502224141 20 279 0.0 0.0 0.00 0.00 0.00 65 1013.2
20260502223638 19 276 0.0 0.0 0.00 0.00 0.00 66 1013.1
20260502223137 19 228 0.0 0.0 0.00 0.00 0.00 67 1013.2
20260502222634 18 250 0.0 0.0 0.00 0.00 0.00 68 1013.3
20260502222130 18 238 0.0 0.0 0.00 0.00 0.00 70 1013.4
20260502221626 18 104 0.0 0.0 0.00 0.00 0.00 68 1013.5
20260502221123 18 247 0.0 0.0 0.00 0.00 0.00 68 1013.6
20260502220620 19 224 0.0 0.0 0.00 0.00 0.00 67 1013.5
20260502220116 19 64 0.0 0.0 0.00 0.00 0.00 66 1013.7
20260502215613 19 12 0.0 0.0 0.00 0.00 0.00 66 1013.8
20260502215110 19 8 0.0 0.0 0.00 0.00 0.00 67 1014.0
20260502214607 19 19 0.0 0.0 0.00 0.00 0.00 65 1013.7
20260502214104 19 4 0.0 0.0 0.00 0.00 0.00 64 1013.8
20260502213601 19 7 0.0 0.0 0.00 0.00 0.00 66 1013.9